sat.trackr.live / text

‹ back to catalog

STARLINK-34481

NORAD 65104 · 2025-167AC

PAYLOAD ACTIVE UNKNOWN

§ Identity

Operator
Country
US
Launch date
2025-08-04
Launch site
AFETR
Launch vehicle
Mass (kg)
RCS (m²)

Purposes: comms

External: N2YO · Heavens-Above · Gunter

§ Orbital elements

Epoch: 2026-09-20T12:56:18.416256Z

Period
93.85 min
Inclination
53.1582°
Eccentricity
0.0001340
Mean motion
15.34415840 rev/d
Perigee alt
461.7 km
Apogee alt
463.6 km
Semi-major
6,840.8 km
B*
6.9692e-4
RAAN
193.6763°
Arg perigee
84.2144°
Mean anomaly
275.9011°
Rev number
6,341

§ Raw data

STARLINK-344811 65104U 25167AC  26263.53910204  .00023255  00000+0  69692-3 0  99912 65104  53.1582 193.6763 0001340  84.2144 275.9011 15.34415840 63412

JSON: /api/v1/satellites/65104 · /tle

For live sub-satellite position, see the globe view (requires WebGL).

§ Visibility from observer

Set your observer location to see the next 7 days of passes ≥ 10°. The values pass through the URL so the page stays shareable.

No JS? Fill the form by hand. The geolocation button needs JavaScript.